Location: Dammerstock
(48.9833°N, 8.4000°E)
Time: 22:33:11
(UTC+00:00)

Daily predictions for brighter satellites

Satellite Brightness Start Highest point End
(mag) Time Altitude Azimuth Time Altitude Azimuth Time Altitude Azimuth
Sich 1 Rocket 3.8 17:10:52 10° N 17:15:20 53° ENE 17:19:47 10° SSE
ATLAS 2AS CENTAUR R/B 4.1 17:10:21 10° W 17:16:19 30° NNW 17:22:12 10° NE
GP-B 3.1 17:12:15 10° S 17:16:36 87° E 17:21:00 10° N
Cosmos 2123 Rocket 4.3 17:11:44 10° SSW 17:18:03 76° W 17:24:22 10° N
SKYMED 2 3.9 17:14:50 10° NNE 17:19:03 46° E 17:23:14 10° S
Resurs 1-3 3.8 17:16:05 10° SE 17:20:13 49° ENE 17:24:23 10° N
IRS-1C 4.4 17:17:07 10° S 17:22:26 76° WSW 17:27:47 10° NNW
Lacrosse 5 rocket 2.3 17:20:51 10° W 17:23:59 30° NNW 17:27:13 10° NE
Resurs 01 Rocket 2.5 17:24:04 10° SE 17:27:51 29° ENE 17:31:38 10° N
Cosmos 1782 4.1 17:29:42 10° NNE 17:32:02 16° ENE 17:34:21 10° ESE
CZ-4 R/B 4.3 17:28:49 10° SSE 17:32:47 90° NE 17:36:47 10° NNW
Cosmos 1674 Rocket 3.7 17:29:32 10° SSW 17:33:56 79° WNW 17:38:23 10° N
SPOT 1/Viking Rocket 3.7 17:28:49 10° SSE 17:33:56 80° WSW 17:39:06 10° NNW
USA 267 3.4 17:31:18 10° NE 17:37:53 82° NNW 17:44:26 10° WSW
CARTOSAT-1 3.8 17:34:18 10° SE 17:38:17 43° ENE 17:42:17 10° N
Radarsat Rocket 4.0 17:35:41 10° SSE 17:41:30 67° ENE 17:47:52 10° NNW
ARIANE 6 FM1 Upper Stage 3.8 17:39:41 10° NNW 17:43:04 26° NNE 17:45:29 15° ENE
Cosmos 2297 Rocket 2.2 17:41:02 10° SSW 17:46:39 70° ESE 17:52:18 10° NNE
Cosmos 1447 Rocket 4.4 17:41:57 10° S 17:48:02 75° E 17:54:12 10° NNE
RESURS DK-1 4.5 17:48:37 10° NNE 17:48:48 10° NE 17:48:59 10° NE
SPOT 5 4.1 17:52:21 14° ESE 17:55:17 23° ENE 17:59:15 10° N
SeaSat 1 3.2 17:52:14 10° SSE 17:57:02 55° WSW 18:01:51 10° NW
SJ-6B 3.2 17:55:04 10° SE 17:58:10 32° ENE 18:01:17 10° N
IRAS Rocket 4.5 17:53:17 10° SE 17:58:39 49° ENE 18:04:04 10° N
Tiangong -0.1 17:56:24 10° SW 17:58:42 18° S 18:00:16 14° SE
PSLV R/B 3.3 17:58:53 10° SSE 18:03:00 79° ENE 18:07:06 10° NNW
Cosmos 2228 3.1 18:00:12 10° N 18:04:17 49° ENE 18:08:22 10° SSE
COSMO-SKYMED 1 2.3 18:00:49 10° NNE 18:04:58 80° ESE 18:09:04 10° S
Meteor 1-31 Rocket 4.0 18:06:27 20° NE 18:06:27 20° NE 18:08:27 10° NNE
NOSS 3-3 (C) 4.2 18:00:40 10° SW 18:05:56 64° NW 18:12:21 10° NE
Cosmos 1544 Rocket 4.4 18:03:10 10° N 18:06:58 29° ENE 18:08:59 20° ESE
Cosmos 1570 Rocket 3.9 18:02:05 10° SSW 18:07:21 81° ESE 18:12:38 10° NNE
CZ-2D R/B 3.7 18:03:58 10° S 18:07:52 67° WSW 18:11:53 10° NNW
YAOGAN 3 4.4 18:04:08 10° SSE 18:08:19 72° ENE 18:12:32 10° N
Cosmos 2344 4.0 18:02:14 10° S 18:09:21 37° ESE 18:14:28 16° ENE
Cosmos 1513 Rocket 4.5 18:05:32 10° N 18:11:52 85° E 18:18:15 10° S
Cosmos 1455 Rocket 3.1 18:07:42 10° NNW 18:12:01 79° W 18:16:19 10° S
YAOGAN 1 3.4 18:07:54 10° S 18:12:03 53° W 18:16:15 10° NNW
Cosmos 2263 Rocket 2.9 18:08:30 10° SSE 18:13:26 32° ESE 18:16:41 18° NE
Cosmos 1975 Rocket 3.1 18:10:20 10° S 18:14:34 55° E 18:18:48 10° NNE
Cosmos 1980 4.5 18:10:11 10° NW 18:15:41 54° WSW 18:21:09 10° S
USA 234 4.3 18:09:38 10° SSE 18:15:49 44° SW 18:22:02 10° WNW
Cosmos 2034 Rocket 4.2 18:09:57 10° N 18:15:52 46° ENE 18:21:47 10° SE
DMSP B5D1-3 4.5 18:11:04 10° NNE 18:16:09 62° ESE 18:21:12 10° S
Cosmos 1072 Rocket 4.4 18:10:38 10° N 18:16:54 72° E 18:23:01 10° SSE
Cosmos 2237 Rocket 3.0 18:15:21 10° NW 18:20:52 54° WSW 18:26:23 10° S
Cosmos 773 Rocket 3.9 18:18:31 10° SSW 18:23:48 86° ESE 18:29:07 10° NNE
NOAA 6 4.3 18:19:41 10° S 18:24:49 71° WSW 18:30:00 10° NNW
DNEPR-1 R/B 4.0 18:20:25 10° NW 18:25:17 89° WSW 18:30:45 12° SE
Cosmos 2208 Rocket 4.0 18:24:29 10° SSW 18:29:45 89° ESE 18:35:07 10° NNE
Terra 3.5 18:31:23 17° NE 18:31:23 17° NE 18:33:16 10° NNE
CRYOSAT 2 4.5 18:28:57 10° N 18:33:51 79° W 18:38:44 10° S
Meteor 2-17 Rocket 4.4 18:29:56 10° S 18:36:00 87° W 18:42:06 10° N
Cosmos 1346 Rocket 2.4 18:35:01 10° S 18:38:36 71° E 18:40:09 32° NNE
Cosmos 44 Rocket 3.4 18:34:06 10° SW 18:39:02 78° NW 18:42:35 20° NE
TSX-5 4.3 18:36:04 10° NNW 18:41:14 57° NE 18:42:13 46° E
Cosmos 1602 3.7 18:39:34 10° SSW 18:42:16 50° WNW 18:43:14 32° NNW
Cosmos 1464 Rocket 4.1 18:36:35 10° N 18:42:59 82° W 18:49:16 10° S
CZ-4C R/B 3.5 18:39:51 10° W 18:44:02 31° NNW 18:48:40 12° NNE
Cosmos 2227 Rocket 2.1 18:40:25 10° SSW 18:46:04 86° ESE 18:51:30 11° NNE
SL-16 R/B 2.1 18:41:57 10° NNW 18:47:39 79° ENE 18:50:49 27° SE
Helios 1A Rocket 4.0 18:49:53 24° S 18:49:53 24° S 18:51:19 10° SSW
NOSS 3-4 (A) 4.5 18:44:58 10° NW 18:51:37 55° WSW 18:59:21 10° SSE
NOSS 3-4 (C) 4.5 18:45:15 10° NW 18:51:55 56° WSW 18:59:40 10° SSE
CZ-4 R/B 2.8 19:02:50 26° N 19:02:50 26° N 19:04:35 10° N
Lacrosse 5 rocket 2.8 18:58:43 10° NW 19:01:16 22° N 19:01:16 22° N
Resurs 01 Rocket 3.2 19:00:05 10° SSW 19:04:07 35° W 19:08:10 10° NNW
Cosmos 1782 3.8 19:03:34 10° NNW 19:06:57 40° W 19:09:32 15° SSW
BREEZE-M DEB (TANK) 4.1 19:02:55 10° SW 19:07:17 53° SE 19:11:13 35° E
ATLAS 2AS CENTAUR R/B 4.1 19:04:00 10° NW 19:09:23 24° N 19:11:46 20° NE
CZ-4B R/B 3.5 19:12:00 48° NE 19:12:00 48° NE 19:16:22 10° N
Gbstr 26 Del rocket 4.3 19:06:28 10° SW 19:13:18 63° SE 19:15:03 50° E
CSL-04 Debris 4.1 19:12:12 36° SSE 19:14:32 89° WSW 19:20:00 10° NNW
CZ-4B DEB 4.0 19:14:53 59° SE 19:15:55 79° ENE 19:21:24 10° NNW
ERS-1 Rocket 3.7 19:20:01 39° NNE 19:20:01 39° NNE 19:23:20 10° N
CSL-04 Rocket 3.7 19:17:14 32° S 19:19:45 76° WSW 19:25:04 10° NNW
USA 267 3.9 19:17:48 31° NE 19:20:32 48° N 19:26:45 10° W
ARIANE 6 FM1 Upper Stage 3.4 19:18:27 10° NW 19:21:31 48° WNW 19:21:31 48° WNW
RESURS DK-1 4.3 19:23:15 10° NNW 19:24:45 21° NNW 19:24:45 21° NNW
Cosmos 2297 Rocket 4.1 19:26:30 10° W 19:31:13 26° NW 19:35:58 10° NNE
SPOT 5 3.4 19:31:23 42° SSW 19:32:47 58° W 19:37:50 10° NNW
Cosmos 1943 3.3 19:28:42 10° NNW 19:33:43 64° NNE 19:33:43 64° NNE
Okean O Rocket 4.2 19:39:04 12° N 19:39:04 12° N 19:39:24 10° N
Tsikada Rocket 3.9 19:29:12 10° S 19:35:21 83° W 19:41:35 10° N
Gblst 52 Del rocket 4.4 19:30:28 10° WNW 19:37:50 83° NNE 19:38:18 77° ENE
MOS 1 4.2 19:38:44 79° N 19:38:44 79° N 19:44:05 10° NNW
Cosmos 2219 3.7 19:41:24 10° SSW 19:45:34 50° SW 19:45:34 50° SW
ADEOS 4.3 19:53:49 49° NW 19:53:49 49° NW 19:57:40 10° NNW
Cosmos 2263 Rocket 2.9 19:51:36 10° SW 19:57:07 50° NW 19:58:28 42° NNW
Terra 3.8 20:10:00 22° NNW 20:10:00 22° NNW 20:11:44 10° NNW
Cosmos 2344 3.8 20:15:56 10° WSW 20:23:21 57° NW 20:24:33 51° N
Cosmos 2227 Rocket 4.3 20:26:27 10° W 20:30:51 23° NW 20:33:22 17° N
SL-16 R/B 4.4 20:27:16 10° WNW 20:31:04 19° W 20:32:45 16° WSW
CZ-4C R/B 4.3 20:30:01 10° NW 20:33:37 21° N 20:33:37 21° N
ATLAS 2AS CENTAUR R/B 4.2 20:55:43 10° NW 20:59:11 28° NNW 20:59:11 28° NNW
